CZ-3B DEB, 40186

Orbit data source: Space-Track

CZ-3B DEB, 40186 is space debris in HEO originally from a launch on Mon, 19 Dec 2011 UTC launched from the Xichang Space Center, China (XSC). Debris objects in space refer to the collection of defunct objects orbiting the Earth. Examples of debris include non-operational satellites, rocket bodies, and fragments generated from explosions, collisions, or faulty payload assembly.

Loading next visibility...
Identifier
40186, 2011-077K
Orbit
HEO
Country
Flag of CNCN / PRC
Related business
Manufacturer
CALT
Mission
Spacecraft
Bus & Motor
Unknown
Mass
Unknown
Launch date (UTC)
2011-12-19 (14 years ago)
Launch vehicle
Unknown
Launch site
Xichang Space Center, China (XSC)
Object type
Payload
Rocket body
Debris
Shape & HBR
Unknown shape, 0.2 m
Radar Cross Section
Medium (>0.1 m² and <1 m²)

Expand to show TLE details & history
Last TLE update: 19 hours ago

TLE from 19 hours ago
0 CZ-3B DEB
1 40186U 11077K   25338.54532154 -.00000077  00000-0  00000+0 0  9999
2 40186  25.4688 133.1571 7307646 171.8762 229.0196  1.88729099 95444
Epoch: 2025-12-04T13:05Z
TLE epoch observation values (Epoch: 2025-12-04T13:05:15.781Z)
Latitude
1.45834°
Longitude
-133.68316°
Altitude
38,960.183 km
Speed
1.781 km/s
True Right ascension
09h 04m 55s
True Declination
1° 27' 25"
Sunlit
Object was in daylight at epoch
Visualization orbit readout
Latitude
Unknown
Longitude
Unknown
Altitude
Unknown
Speed
Unknown
Apparent Right ascension
Unknown
Apparent Declination
Unknown
Sunlit
N/A
Visualization observer readout
Local Sidereal Time
06:07:56
Azimuth
Unknown
Elevation
Unknown
Doppler factor
Unknown
Orbital elements
Apogee altitude
41,500.047 km
Perigee altitude
1,069.728 km
Semi-major axis
27,663.024 km
Eccentricity
0.73076
Inclination
25.4688°
RAAN
133.1571°
Arg. of periapsis
171.8762°
True anomaly
191.57728°
Mean anomaly
229.0196°
Eccentric anomaly
208.82969°
Mean motion
0.47173 °/min
Orbital period
763.15 mins
BSTAR
0
Loading maneuver chart data...
Computing Atmospheric mass density...
Loading historical data...
Loading historical data...
Loading historical data...
Loading historical data...
Loading historical data...
Loading historical data...
Loading historical data...

Documentation

Showing up to 5 results
|